Location: Brantley
(31.5822°N, 86.2569°W)
Time: 21:47:03
(UTC+00:00)

A-11 Canister half - Pass Details

Date: 21 February 2026
Orbit: 1525 x 1683 km, 47.3° (Epoch: 10 March)

Event Time Altitude Azimuth Distance (km) Brightness Sun altitude
Rises 04:30:39 0° 306° (NW) 4,676 12.0 -60.7°
Reaches altitude 10° 04:33:42 10° 303° (WNW) 3,698 11.3 -61.2°
Enters shadow 04:34:23 13° 302° (WNW) 3,484 11.1 -61.3°
